When you browse on this site, cookies collect data to enhance your experience and personalize the content and advertising you see.
Visit our Privacy Policy to learn more. By continuing to use the site, you agree to this use of cookies and data.
  • In Portugal
  • List of Countries
  • For 7 days
  • Water Temperature
  • Satellite Maps
  • Weather Map
  • Weather Widgets
  • user-avatar
    Login

    Hourly Weather Chrzastowo

    Today, 23 February, Saturday

    Time Temperature Precipitation Wind Pressure Humidity
    00:00 -2°C° 0 mm 1 mps 769 mmHg 53%
    01:00 -3°C° 0 mm 1 mps 770 mmHg 51%
    02:00 -3°C° 0 mm 1 mps 769 mmHg 51%
    03:00 -3°C° 0 mm 1 mps 769 mmHg 51%
    04:00 -3°C° 0 mm 1 mps 769 mmHg 50%
    05:00 -3°C° 0 mm 1 mps 769 mmHg 49%
    06:00 -3°C° 0 mm 1 mps 769 mmHg 48%
    07:00 -5°C° 0 mm 2 mps 769 mmHg 48%
    08:00 -4°C° 0 mm 2 mps 769 mmHg 44%
    09:00 -4°C° 0 mm 2 mps 769 mmHg 39%
    10:00 -3°C° 0 mm 2 mps 769 mmHg 34%
    11:00 -2°C° 0 mm 3 mps 769 mmHg 32%
    12:00 -1°C° 0 mm 3 mps 769 mmHg 30%
    13:00 -1°C° 0 mm 3 mps 769 mmHg 29%
    14:00 -1°C° 0 mm 3 mps 768 mmHg 29%
    15:00 -1°C° 0 mm 3 mps 768 mmHg 29%
    16:00 0°C° 0 mm 3 mps 767 mmHg 29%
    17:00 -1°C° 0 mm 3 mps 767 mmHg 32%
    18:00 -2°C° 0 mm 3 mps 767 mmHg 35%
    19:00 -3°C° 0 mm 2 mps 766 mmHg 38%
    20:00 -4°C° 0 mm 3 mps 766 mmHg 38%
    21:00 -4°C° 0 mm 3 mps 766 mmHg 38%
    22:00 -4°C° 0 mm 3 mps 765 mmHg 38%
    23:00 -2°C° 0 mm 3 mps 765 mmHg 38%

    Tomorrow, 24 February, Sunday

    Time Temperature Precipitation Wind Pressure Humidity
    00:00 -2°C° 0 mm 3 mps 765 mmHg 37%
    01:00 -2°C° 0 mm 3 mps 765 mmHg 37%
    02:00 -2°C° 0 mm 3 mps 765 mmHg 38%
    03:00 -2°C° 0 mm 3 mps 764 mmHg 40%
    04:00 -2°C° 0 mm 3 mps 764 mmHg 42%
    05:00 -2°C° 0 mm 3 mps 764 mmHg 42%
    06:00 -2°C° 0 mm 3 mps 764 mmHg 41%
    07:00 -2°C° 0 mm 3 mps 763 mmHg 41%
    08:00 -1°C° 0 mm 3 mps 763 mmHg 39%
    09:00 +1°C° 0 mm 3 mps 763 mmHg 38%
    10:00 +2°C° 0 mm 3 mps 763 mmHg 36%
    11:00 +3°C° 0 mm 4 mps 763 mmHg 37%
    12:00 +4°C° 0 mm 4 mps 763 mmHg 38%
    13:00 +5°C° 0 mm 4 mps 763 mmHg 39%
    14:00 +5°C° 0 mm 4 mps 763 mmHg 44%
    15:00 +4°C° 0 mm 3 mps 763 mmHg 49%
    16:00 +4°C° 0 mm 3 mps 762 mmHg 54%
    17:00 +3°C° 0 mm 3 mps 762 mmHg 57%
    18:00 +2°C° 0 mm 3 mps 762 mmHg 59%
    19:00 0°C° 0 mm 4 mps 762 mmHg 61%
    20:00 0°C° 0 mm 4 mps 762 mmHg 63%
    21:00 0°C° 0 mm 4 mps 762 mmHg 65%
    22:00 -1°C° 0 mm 4 mps 762 mmHg 66%
    23:00 0°C° 0 mm 3 mps 762 mmHg 71%

    Day after tomorrow, 25 February, Monday

    Time Temperature Precipitation Wind Pressure Humidity
    00:00 0°C° 0 mm 3 mps 762 mmHg 77%
    01:00 0°C° 0 mm 3 mps 762 mmHg 82%
    02:00 0°C° 0 mm 3 mps 762 mmHg 86%
    03:00 0°C° 0 mm 3 mps 761 mmHg 90%
    04:00 0°C° 0 mm 3 mps 761 mmHg 94%
    05:00 0°C° 0 mm 3 mps 761 mmHg 95%
    06:00 0°C° 0 mm 3 mps 761 mmHg 96%
    07:00 0°C° 0 mm 3 mps 761 mmHg 97%
    08:00 +1°C° 0 mm 3 mps 762 mmHg 95%
    09:00 +1°C° 0 mm 4 mps 762 mmHg 93%
    10:00 +3°C° 0 mm 4 mps 762 mmHg 92%
    11:00 +4°C° 0 mm 4 mps 762 mmHg 85%
    12:00 +5°C° 0 mm 4 mps 762 mmHg 79%
    13:00 +7°C° 0 mm 3 mps 761 mmHg 72%
    14:00 +7°C° 0 mm 3 mps 761 mmHg 72%
    15:00 +7°C° 0 mm 3 mps 761 mmHg 73%
    16:00 +7°C° 0 mm 3 mps 761 mmHg 73%
    17:00 +4°C° 0 mm 3 mps 761 mmHg 78%
    18:00 +3°C° 0 mm 3 mps 761 mmHg 84%
    19:00 +2°C° 0 mm 3 mps 761 mmHg 90%
    20:00 +2°C° 0 mm 3 mps 760 mmHg 91%
    21:00 +1°C° 0 mm 3 mps 760 mmHg 93%
    22:00 +1°C° 0 mm 3 mps 760 mmHg 94%
    23:00 +1°C° 0 mm 3 mps 760 mmHg 95%

    26 February, Tuesday

    Time Temperature Precipitation Wind Pressure Humidity
    00:00 +2°C° 0 mm 3 mps 759 mmHg 96%
    01:00 +2°C° 0 mm 3 mps 759 mmHg 96%
    02:00 +3°C° 0 mm 4 mps 758 mmHg 96%
    03:00 +3°C° 0 mm 4 mps 758 mmHg 95%
    04:00 +3°C° 0 mm 5 mps 757 mmHg 94%
    05:00 +3°C° 0 mm 5 mps 757 mmHg 94%
    06:00 +2°C° 0 mm 5 mps 757 mmHg 93%
    07:00 +2°C° 0 mm 5 mps 757 mmHg 93%
    08:00 +3°C° 0 mm 5 mps 757 mmHg 90%
    09:00 +3°C° 0 mm 5 mps 757 mmHg 87%
    10:00 +5°C° 0 mm 5 mps 758 mmHg 84%
    11:00 +5°C° 0 mm 4 mps 758 mmHg 80%
    12:00 +6°C° 0 mm 4 mps 758 mmHg 76%
    13:00 +7°C° 0 mm 4 mps 758 mmHg 71%
    14:00 +7°C° 0 mm 4 mps 758 mmHg 69%
    15:00 +7°C° 0 mm 4 mps 758 mmHg 68%
    16:00 +8°C° 0 mm 3 mps 758 mmHg 66%
    17:00 +7°C° 0 mm 3 mps 759 mmHg 72%
    18:00 +4°C° 0 mm 3 mps 759 mmHg 78%
    19:00 +4°C° 0 mm 2 mps 759 mmHg 84%
    20:00 +3°C° 0 mm 2 mps 759 mmHg 84%
    21:00 +3°C° 0 mm 2 mps 759 mmHg 84%
    22:00 +4°C° 0 mm 1 mps 759 mmHg 85%
    23:00 +3°C° 0 mm 1 mps 759 mmHg 85%

    27 February, Wednesday

    Time Temperature Precipitation Wind Pressure Humidity
    00:00 +3°C° 0 mm 1 mps 759 mmHg 84%
    01:00 +3°C° 0 mm 1 mps 759 mmHg 84%
    02:00 +2°C° 0 mm 2 mps 758 mmHg 87%
    03:00 +2°C° 0 mm 2 mps 758 mmHg 89%
    04:00 +2°C° 0 mm 2 mps 757 mmHg 92%
    05:00 +2°C° 0 mm 2 mps 757 mmHg 92%
    06:00 +1°C° 0 mm 3 mps 756 mmHg 92%
    07:00 +1°C° 0 mm 3 mps 756 mmHg 92%
    08:00 +2°C° 0 mm 3 mps 756 mmHg 86%
    09:00 +3°C° 0 mm 4 mps 756 mmHg 80%
    10:00 +5°C° 0 mm 4 mps 756 mmHg 75%
    11:00 +6°C° 0 mm 4 mps 755 mmHg 72%
    12:00 +7°C° 0 mm 4 mps 755 mmHg 69%
    13:00 +8°C° 0 mm 4 mps 755 mmHg 66%
    14:00 +8°C° 0 mm 4 mps 754 mmHg 68%
    15:00 +8°C° 0 mm 4 mps 754 mmHg 70%
    16:00 +8°C° 0 mm 4 mps 753 mmHg 72%
    17:00 +7°C° 0 mm 3 mps 753 mmHg 78%
    18:00 +5°C° 0 mm 3 mps 752 mmHg 84%
    19:00 +4°C° 0 mm 3 mps 752 mmHg 90%
    20:00 +4°C° 0 mm 3 mps 751 mmHg 90%
    21:00 +4°C° 0 mm 3 mps 750 mmHg 89%
    22:00 +4°C° 0 mm 3 mps 750 mmHg 89%
    23:00 +4°C° 0 mm 3 mps 749 mmHg 88%

    28 February, Thursday

    Time Temperature Precipitation Wind Pressure Humidity
    00:00 +4°C° 0 mm 4 mps 748 mmHg 88%
    01:00 +4°C° 0 mm 4 mps 747 mmHg 87%
    02:00 +4°C° 0 mm 4 mps 747 mmHg 84%
    03:00 +3°C° 0 mm 5 mps 746 mmHg 81%
    04:00 +3°C° 0 mm 5 mps 745 mmHg 78%
    05:00 +3°C° 0 mm 5 mps 745 mmHg 82%
    06:00 +3°C° 0 mm 6 mps 744 mmHg 87%
    07:00 +2°C° 0 mm 6 mps 744 mmHg 91%
    08:00 +3°C° 0 mm 7 mps 744 mmHg 88%
    09:00 +3°C° 0 mm 7 mps 744 mmHg 85%
    10:00 +2°C° 0 mm 8 mps 744 mmHg 82%
    11:00 +4°C° 0 mm 8 mps 744 mmHg 77%
    12:00 +5°C° 0 mm 9 mps 744 mmHg 72%
    13:00 +6°C° 0 mm 9 mps 744 mmHg 66%
    14:00 +5°C° 0 mm 9 mps 744 mmHg 66%
    15:00 +5°C° 0 mm 9 mps 744 mmHg 67%
    16:00 +5°C° 0 mm 8 mps 744 mmHg 67%
    17:00 +4°C° 0 mm 8 mps 744 mmHg 70%
    18:00 +3°C° 0 mm 7 mps 745 mmHg 73%
    19:00 +2°C° 0 mm 6 mps 745 mmHg 75%
    20:00 +2°C° 0 mm 6 mps 745 mmHg 77%
    21:00 +2°C° 0 mm 5 mps 745 mmHg 78%
    22:00 +1°C° 0 mm 5 mps 746 mmHg 79%
    23:00 +1°C° 0 mm 5 mps 746 mmHg 81%
    Show more